Regional Weather Roundup
Issued by NWS

Home | Current Version | Previous Version | Graphics & Text | Print | Product List | Glossary On
Versions: 1 2 3 4 5 6 7 8 9 10 11 12 13 14 15 16 17 18 19 20 21 22 23 24 25 26 27 28 29 30 31 32 33 34 35 36 37 38 39 40 41 42 43 44 45 46 47 48 49 50
000
ASUS45 KTFX 261910
RWRMT
MONTANA REGIONAL WEATHER ROUNDUP
NATIONAL WEATHER SERVICE GREAT FALLS MT
100 PM MDT WED JUL 26 2017

NOTE: "FAIR" INDICATES FEW OR NO CLOUDS BELOW 12000 FEET WITH NO
SIGNIFICANT WEATHER AND/OR OBSTRUCTIONS TO VISIBILITY.

MTZ001>007-043-262000-
WEST OF THE DIVIDE

CITY           SKY/WX    TMP DP  RH WIND       PRES   REMARKS
KALISPELL      SUNNY     82  43  25 SE5       30.06F
MISSOULA       SUNNY     83  39  21 VRB5      30.07F
BUTTE          SUNNY     83  35  18 VRB5      30.20F
MULLAN PASS    SUNNY     73  34  23 VRB5      30.26S
ANACONDA         N/A     84  37  18 SE6       30.15F
DEER LODGE       N/A     81  41  24 N3        30.17F
EUREKA           N/A     82  36  18 MISG      30.05F
HAMILTON         N/A     79  48  34 N3        30.09F
LIBBY            N/A     84  37  18 N3        30.03F
PLAINS           N/A     87  44  22 CALM      30.04F
THOMPSON FALLS   N/A     88  41  19 W7        30.06F
$$

MTZ008-052>055-262000-
SOUTHWEST MONTANA

CITY           SKY/WX    TMP DP  RH WIND       PRES   REMARKS
BOZEMAN        SUNNY     86  50  28 N3        30.15F
DILLON         CLOUDY    69  57  65 SW9       30.21F
W YELLOWSTONE  CLOUDY    73  45  35 VRB3      30.31F
ENNIS          MOSUNNY   77  45  31 CALM      30.25S
THREE FORKS      N/A     84  48  28 E3        30.12F
TWIN BRIDGES     N/A     75  48  38 CALM      30.17F
$$

MTZ009-010-012-014-046-048-049-054-262000-
EAST SLOPES AND CENTRAL MONTANA

CITY           SKY/WX    TMP DP  RH WIND       PRES   REMARKS
CUT BANK       SUNNY     85  36  17 SE20G25   30.10F
GREAT FALLS    SUNNY     85  43  22 VRB6      30.09F
MALMSTROM AFB  SUNNY     84  42  23 E6        30.09F
HELENA         MOSUNNY   85  45  24 E6        30.10F
CHOTEAU          N/A     84  43  23 E12       30.12F
CONRAD           N/A     85  44  23 E7        30.11F
$$

MTZ011-013-016-021-045-047-050-051-262000-
NORTH CENTRAL MONTANA

CITY           SKY/WX    TMP DP  RH WIND       PRES   REMARKS
HAVRE          SUNNY     90  38  16 E9G18     30.05F
LEWISTOWN      SUNNY     84  47  27 VRB5      30.13F
N BAR RANCH      N/A     84  46  26 S23       30.18S
CHINOOK          N/A     84  45  24 E12G18    30.07F
$$

MTZ017>020-022>027-061-062-262000-
NORTHEAST MONTANA

CITY           SKY/WX    TMP DP  RH WIND       PRES   REMARKS
GLASGOW        SUNNY     87  44  22 E7        30.09F
JORDAN           N/A     89  45  21 SE9       30.08F
SIDNEY         SUNNY     87  50  27 VRB6      30.11F
WOLF POINT     SUNNY     90  47  22 VRB7G18   30.09F
MALTA          SUNNY     88  43  20 SE9       30.08F
PLENTYWOOD       N/A     82  46  28 CALM      30.14S
POPLAR           N/A     84  46  26 E7        30.11F
SCOBEY           N/A     83  47  28 N3        30.12F
$$

MTZ028>42-056>058-262000-
SOUTHCENTRAL AND SOUTHEAST MONTANA

CITY           SKY/WX    TMP DP  RH WIND       PRES   REMARKS
BAKER          SUNNY     89  44  20 S9        30.14F
BILLINGS       MOSUNNY   82  49  31 VRB6      30.13F
LIVINGSTON     CLOUDY    81  49  32 VRB6      30.16F
MILES CITY     SUNNY     90  50  25 E8        30.09F
BIG TIMBER       N/A     79  48  34 VRB6      30.19F
FORSYTH          N/A     90  52  27 E6        30.08F
LAUREL           N/A     82  48  30 N3        30.11
$$

REGIONAL REPORTS...DAKOTAS

CITY           SKY/WX    TMP DP  RH WIND       PRES   REMARKS
WILLISTON      SUNNY     88  48  25 VRB3      30.13F
MINOT          MOSUNNY   82  52  35 NW10      30.13F
DICKINSON      SUNNY     87  51  28 VRB7      30.13F
BEACH          DRIZZLE   86  41  20 SW3G12    30.16F
CROSBY           N/A     81  50  34 N7        30.15F
TIOGA            N/A     81  48  32 NE8G21    30.17S
WATFORD CITY     N/A     86  50  28 CALM      30.12F
BISMARCK       SUNNY     85  53  33 VRB7      30.12F
GRAND FORKS    MOSUNNY   80  61  52 N9G20     30.05F
FARGO          MOSUNNY   82  62  50 NW12      30.05F
BUFFALO SD       N/A     87  49  26 VRB3      30.10F
RAPID CITY     PTSUNNY   80  49  33 VRB5      30.20S
$$

REGIONAL REPORTS...WYOMING/IDAHO/WASHINGTON

CITY           SKY/WX    TMP DP  RH WIND       PRES   REMARKS
GILLETTE       CLOUDY    79  54  41 S9        30.22S
SHERIDAN       SUNNY     84  53  34 SE10G18   30.16F
BUFFALO WY     MOSUNNY   80  53  39 S16G24    30.24F
CODY           SUNNY     79  47  32 NE8       30.23F
YELLOWSTONE LA   N/A     63  51  65 SE5       30.42F
IDAHO FALLS    CLOUDY    68  60  75 S5        30.27S
BOISE          SUNNY     88  51  28 E7        30.10F
SPOKANE        PTSUNNY   86  40  19 E5        30.05S
$$

REGIONAL REPORTS...ALBERTA

CITY           SKY/WX    TMP DP  RH WIND       PRES   REMARKS
EDMONTON       SUNNY     77  55  47 S14       30.02F
CALGARY        MOSUNNY   79  46  31 S8        30.06F
LETHBRIDGE     MOSUNNY   84  48  28 E7        30.04F
MEDICINE HAT   MOSUNNY   84  43  23 SW6       30.03F
WATERTON GATE    N/A     82  37  20 SW12G17     N/A
CARDSTON         N/A     84  41  21 N3          N/A
MILK RIVER       N/A     86  41  20 S17         N/A
$$

REGIONAL REPORTS...SASKATCHEWAN

CITY           SKY/WX    TMP DP  RH WIND       PRES   REMARKS
SWIFT CURRENT  SUNNY     81  43  26 SW8       30.11F
REGINA         MOSUNNY   79  50  36 NW5       30.13F
SASKATOON      MOSUNNY   77  52  41 W9        30.11F
CYPRESS HILLS    N/A     79  37  22 S9G17       N/A
VAL MARIE        N/A     84  39  20 SE8         N/A
ROCKGLEN         N/A     81  41  24 S5G20       N/A
ASSINIBOIA       N/A     77  52  41 S10         N/A
$$



USA.gov is the U.S. government's official web portal to all federal, state and local government web resources and services.